Theta_e
338 338 338 337 336 335 335 334 334 333 333 332 331 330 329 328 328 326 324 324 323 320 317 314 311 310 309 309 311 313 313 313 312 312 311 311 311 310 309 308 308 307
338 338 337 336 335 335 334 334 333 333 332 331 330 329 328 326 325 323 323 322 320 318 315 311 308 308 309 309 310 310 311 310 310 310 309 309 309 308 308 307 306 306
337 337 336 336 335 334 333 333 332 332 331 330 329 327 325 324 323 322 321 320 317 316 314 311 309 309 309 309 309 309 309 309 308 308 308 307 307 307 306 306 305 305
337 337 336 335 335 334 333 332 331 331 330 329 327 325 323 322 321 320 319 318 316 315 313 311 310 310 309 309 309 309 308 308 308 307 307 306 306 306 305 305 304 304
336 336 336 335 334 334 333 332 331 330 329 328 324 322 321 321 320 319 317 316 315 314 312 311 310 309 309 308 308 308 308 307 307 306 306 305 305 304 304 304 304 303
336 336 335 335 334 333 332 331 330 329 328 326 323 321 321 321 320 319 318 316 314 312 310 310 309 309 308 308 307 307 307 306 306 306 305 304 303 303 303 303 303 303
335 335 334 334 333 332 331 331 329 329 327 324 322 321 321 321 320 319 318 316 313 311 310 310 309 308 307 307 307 307 306 306 306 305 304 303 303 304 303 303 303 303
335 334 334 333 332 331 331 330 329 328 325 322 321 321 321 321 320 318 317 315 311 310 310 309 308 308 308 307 307 306 306 306 305 304 303 304 304 305 305 304 304 304
334 334 333 332 331 331 330 329 329 327 324 322 321 322 321 320 319 318 316 311 309 309 309 308 307 308 308 307 306 306 306 305 305 305 304 305 305 306 305 305 304 304
334 333 333 332 331 330 330 329 328 325 323 322 322 321 320 319 319 317 313 309 309 309 309 308 308 307 307 307 306 306 306 305 305 305 305 305 305 305 305 305 304 303
334 333 332 331 330 330 330 329 326 324 322 322 322 320 320 319 318 315 310 308 309 309 309 308 308 307 307 307 306 305 305 305 305 305 304 304 304 304 304 304 304 304
333 332 331 330 330 330 329 328 325 323 323 322 321 320 320 318 316 312 309 309 310 309 309 308 307 307 307 306 306 305 305 305 305 305 304 304 304 303 304 304 304 304
332 331 330 330 329 329 329 326 323 322 322 321 321 320 319 317 314 312 310 309 309 309 309 308 307 307 307 307 307 306 305 305 306 305 305 305 304 303 303 304 304 303
331 330 329 329 329 329 328 325 322 321 321 321 320 319 317 315 313 312 311 309 309 309 308 308 307 308 307 307 307 306 305 305 305 305 305 305 305 305 304 304 304 304
330 329 329 328 328 328 327 324 321 321 321 320 319 318 317 315 314 313 311 309 309 308 308 308 308 308 307 307 307 306 305 305 305 305 306 306 305 305 305 304 304 303
330 328 328 327 326 327 326 323 321 320 320 319 318 318 317 316 314 312 311 309 308 308 308 308 308 308 307 307 307 306 305 305 305 306 306 306 305 305 305 304 304 303
328 328 327 326 326 326 325 322 321 320 319 319 318 317 317 316 314 312 310 309 308 308 308 309 309 308 307 307 307 306 305 305 306 306 306 306 305 305 305 304 303 303
327 326 326 325 325 325 323 321 320 320 319 319 318 317 317 316 313 311 310 309 308 308 308 308 308 308 307 307 306 306 305 306 306 306 306 305 305 305 304 304 303 301
326 326 325 325 325 324 322 321 321 320 319 319 318 318 317 315 313 311 310 309 308 308 308 308 308 308 307 307 306 306 306 306 306 306 305 305 305 304 303 303 302 297
326 325 324 325 325 323 321 321 321 320 319 319 318 318 317 315 313 311 310 309 308 308 308 308 307 307 307 307 306 306 306 306 306 305 305 305 305 304 303 303 301 295
325 325 324 324 324 322 321 321 320 320 319 319 318 318 317 315 313 311 310 308 308 307 307 307 307 307 307 306 306 306 306 306 305 305 305 305 304 303 303 303 300 294
325 324 324 324 323 321 320 320 320 319 319 318 318 318 316 314 312 311 310 308 307 307 307 307 307 306 306 306 306 306 306 306 305 305 305 304 304 303 303 303 301 296
325 324 323 322 322 321 320 320 319 318 318 318 318 317 315 313 312 310 309 308 307 307 307 306 306 306 306 306 306 306 306 305 305 305 304 304 304 304 303 303 302 300
324 324 323 322 321 321 320 319 318 318 318 318 318 317 314 313 312 310 309 308 307 307 306 306 306 306 306 306 306 306 306 306 305 305 303 303 304 304 303 303 303 303
323 323 323 322 321 320 320 319 318 317 317 317 317 317 315 313 311 310 308 307 307 307 306 306 306 306 306 306 306 306 306 306 305 304 303 303 304 304 304 304 303 303
323 323 323 323 322 321 320 319 318 317 317 316 316 316 314 312 311 309 308 307 307 306 306 306 306 306 306 306 306 306 306 305 304 303 303 304 304 305 305 304 303 303
Wind_Speed
34 35 34 33 32 32 33 32 32 31 30 28 27 25 23 21 20 20 18 16 16 16 15 14 15 15 15 15 16 16 17 17 17 17 16 16 17 17 17 17 16 16
34 34 34 33 32 32 32 32 31 31 30 28 26 25 23 22 21 20 18 18 18 16 15 16 16 16 17 17 17 17 18 18 18 18 17 17 18 18 18 18 18 18
34 35 34 33 33 32 31 30 30 30 29 27 26 25 24 23 22 20 19 19 19 17 17 17 17 17 17 18 18 18 19 20 20 19 18 18 18 19 19 19 19 19
34 34 34 34 33 33 31 30 30 29 28 27 27 26 25 24 22 21 21 20 19 19 18 17 17 17 18 18 19 20 20 20 20 19 19 19 19 19 20 20 20 20
34 34 34 34 33 33 32 31 30 28 27 28 29 28 27 25 23 22 22 21 20 20 19 18 18 18 19 20 21 22 22 21 20 20 20 21 19 19 20 21 21 21
33 33 33 33 33 33 32 31 30 27 27 30 31 30 28 26 24 23 22 22 21 21 20 20 20 20 21 22 23 23 23 22 22 21 21 22 22 21 21 21 22 22
33 33 33 33 33 32 31 30 27 26 29 33 33 31 29 27 26 24 23 22 22 22 22 22 22 22 23 24 24 24 23 23 23 22 23 24 24 23 21 21 22 21
33 33 33 32 32 31 30 28 26 28 32 34 33 32 29 28 27 24 22 23 24 24 23 23 23 24 24 24 25 25 24 24 24 24 25 25 24 22 20 20 19 19
33 33 33 32 31 31 29 27 27 31 34 34 33 32 30 28 26 23 23 24 25 25 24 24 24 25 25 25 25 25 25 26 25 25 25 25 24 22 21 19 18 18
34 33 33 32 32 31 29 28 30 33 34 34 33 32 30 28 24 22 24 26 27 26 25 25 25 25 25 24 24 25 26 26 25 24 23 23 23 22 21 19 18 17
34 33 33 33 32 31 29 29 32 34 34 33 33 32 30 27 24 24 26 27 27 27 26 26 25 25 25 24 24 24 25 25 25 23 22 21 21 21 20 19 18 17
34 34 34 33 33 31 30 31 33 34 34 33 33 31 29 27 26 26 27 28 28 27 27 26 26 26 25 25 25 24 25 25 24 22 21 20 19 19 20 20 19 18
35 35 35 34 33 32 30 32 33 34 34 34 32 30 28 28 27 27 27 28 28 27 26 26 26 26 26 25 25 24 25 25 23 22 21 20 19 19 19 19 19 18
34 34 35 34 33 32 31 33 34 34 34 34 31 29 28 28 27 27 27 27 27 27 26 26 26 26 26 26 26 25 25 24 23 23 22 21 20 19 19 18 17 16
33 33 33 33 32 32 32 34 34 33 33 32 30 29 28 27 27 26 27 27 27 27 27 27 27 27 27 27 26 26 25 24 24 24 23 23 22 20 19 17 15 14
34 33 33 33 32 31 32 34 34 33 32 32 30 29 28 27 27 27 27 27 28 28 28 27 27 27 27 27 26 26 25 25 25 25 24 24 23 22 20 17 14 12
34 34 33 33 32 31 32 34 33 32 32 32 31 30 28 27 27 28 28 28 28 29 29 28 27 27 27 27 26 25 26 27 27 26 25 24 23 22 20 17 14 13
34 34 34 33 32 31 33 34 32 32 32 32 32 31 29 28 28 29 29 28 28 29 29 28 27 27 27 27 26 26 27 27 27 26 25 24 23 21 19 16 15 14
35 34 33 32 31 31 33 33 31 31 33 33 32 31 29 29 29 30 30 29 29 29 29 28 27 27 27 27 26 27 27 27 26 26 24 23 22 20 18 16 15 15
34 34 33 31 31 31 33 32 31 32 33 34 33 31 30 30 30 30 30 30 30 29 29 28 27 27 27 27 27 27 26 25 25 24 24 23 21 19 17 15 14 16
34 33 32 31 31 32 32 31 30 32 33 33 33 32 31 31 31 31 31 30 30 30 29 28 28 27 27 27 27 27 26 25 25 24 23 21 19 18 17 15 13 16
35 33 32 31 32 32 32 30 30 32 33 33 33 32 31 31 32 32 31 31 31 30 30 29 28 28 27 27 27 26 26 25 25 24 23 20 18 18 17 14 13 15
35 34 32 32 33 33 32 31 31 32 33 34 33 32 31 31 32 31 31 31 31 31 30 30 29 28 28 28 27 27 26 26 25 24 22 20 19 19 17 15 14 14
34 34 34 33 33 33 32 31 31 32 34 34 33 32 31 31 31 30 30 30 31 31 31 30 29 29 28 28 28 27 27 26 25 23 22 20 20 19 19 18 16 14
35 35 35 34 34 33 33 32 30 31 32 32 32 31 31 30 30 30 29 29 30 31 31 30 29 28 28 28 28 27 27 26 24 23 23 22 22 22 21 21 19 16
36 36 35 35 35 33 32 30 29 29 30 30 30 29 29 29 29 29 28 29 30 30 30 29 28 28 28 28 28 27 27 26 24 25 25 24 24 23 22 22 21 18
Wind_Direction
185 183 180 179 179 178 178 179 181 183 185 188 190 191 190 189 189 190 190 193 200 196 189 188 184 179 174 172 173 173 171 169 165 163 164 161 159 157 152 147 145 140
185 183 181 179 178 179 180 183 186 189 191 192 194 193 189 187 188 189 190 192 192 187 184 184 182 179 174 171 173 171 167 164 160 160 161 157 155 154 150 145 141 137
185 184 182 180 180 181 182 185 189 192 193 193 193 190 186 186 186 187 190 190 187 182 182 182 178 178 175 171 171 169 165 161 157 157 157 153 154 152 148 145 140 134
184 185 184 183 184 184 184 185 187 190 192 191 188 185 184 183 183 185 187 188 186 182 182 181 178 176 173 170 169 166 163 160 156 157 155 151 153 151 146 145 138 131
183 185 185 185 185 185 185 185 186 188 190 189 185 183 183 181 182 185 186 186 187 185 182 180 178 176 173 171 169 164 161 158 156 158 155 149 150 148 145 143 137 130
182 183 184 185 185 185 184 185 186 188 189 186 183 182 183 183 184 186 186 187 187 185 181 179 177 175 172 171 168 165 162 158 157 158 154 148 146 144 141 139 134 130
180 181 183 185 184 184 185 185 187 189 188 184 181 182 184 185 187 187 188 188 185 182 179 178 177 173 172 171 168 164 161 159 159 159 153 147 144 141 138 138 134 131
179 180 183 183 182 183 184 185 187 188 185 182 181 183 186 188 188 187 189 187 183 180 179 179 177 174 172 172 169 165 162 161 161 159 154 149 146 143 141 140 138 135
177 179 181 181 181 181 183 185 187 185 183 182 182 184 187 188 189 188 188 185 181 180 180 179 178 176 175 174 172 168 165 164 165 162 158 155 152 149 146 145 142 136
176 179 180 180 180 181 182 185 185 182 182 183 183 184 186 187 190 189 186 183 181 181 181 180 179 177 177 177 176 173 169 167 167 166 163 161 158 154 152 151 147 142
176 178 180 180 180 180 183 184 183 181 181 183 184 184 185 187 189 188 185 184 183 183 182 182 181 180 178 178 178 175 172 168 167 165 163 161 159 157 157 157 155 150
177 179 180 180 180 181 184 184 182 180 181 184 185 185 186 188 188 186 185 186 186 185 184 183 183 182 181 180 178 175 171 168 167 165 162 159 156 157 162 164 162 160
177 179 180 180 180 181 183 182 181 180 181 184 186 187 186 187 186 185 187 189 188 187 186 185 184 183 182 181 178 175 172 170 169 166 162 160 158 160 166 169 169 170
176 178 179 179 180 181 182 181 180 180 181 184 186 187 186 186 185 185 188 191 191 189 188 186 184 184 184 182 179 177 175 173 171 168 164 162 162 165 169 172 173 174
176 176 178 179 180 180 181 181 180 180 182 185 186 186 186 185 186 187 189 190 191 190 188 188 187 186 185 184 181 179 178 175 171 169 167 166 166 169 172 174 175 173
174 175 176 177 179 180 181 182 181 182 184 185 186 186 186 186 187 189 190 190 189 189 189 189 190 190 189 187 185 182 179 176 173 172 173 172 170 171 173 175 177 177
171 174 175 177 179 181 182 182 181 182 184 185 186 186 186 187 189 191 192 191 190 190 191 192 192 192 192 190 189 187 183 179 177 177 178 178 177 176 176 177 179 181
170 172 175 177 179 181 182 181 181 182 183 184 186 187 187 189 191 193 193 193 192 192 193 194 195 195 194 193 191 189 187 183 181 182 183 182 182 182 181 180 180 178
170 172 174 177 179 181 181 180 180 182 184 185 186 187 189 191 192 194 194 194 194 194 195 196 197 196 195 194 193 191 189 188 187 187 188 185 184 186 184 183 182 176
172 173 174 177 179 181 181 181 181 183 184 186 187 187 189 191 193 194 195 195 196 196 197 197 197 196 195 194 194 192 192 192 191 192 191 189 189 190 187 187 187 180
173 174 175 176 179 181 182 183 183 183 184 185 186 188 191 192 194 195 195 196 197 197 197 198 198 196 195 195 195 195 195 195 194 194 193 192 195 195 193 195 193 186
175 175 176 177 179 181 182 183 184 184 185 185 186 189 193 194 195 196 196 195 196 197 198 197 197 196 196 196 197 196 196 196 195 194 195 197 199 197 196 198 194 188
176 176 177 178 180 182 184 185 185 184 184 184 185 188 191 194 195 196 197 197 195 197 198 197 196 196 197 198 198 198 197 196 195 195 197 200 200 199 201 203 196 191
176 177 178 179 181 184 186 186 185 185 185 185 187 188 191 194 196 196 197 198 197 198 199 199 197 196 198 199 200 200 198 196 196 198 200 201 202 205 211 208 200 196
177 179 180 181 184 187 188 187 186 186 186 187 188 190 191 193 195 196 195 197 199 201 201 201 199 196 197 200 201 201 199 198 199 200 199 201 206 212 214 209 203 201
178 180 183 184 187 189 190 189 187 185 185 186 187 189 190 191 194 196 196 197 200 201 201 202 200 197 198 200 201 202 202 201 203 202 200 203 208 209 207 204 201 201